KN6WGU Weather Reports


time (UTC)temp
C
wind
direction
speed
KPH
gust
KPH
rain 1hr
cm
rain 24hr
cm
rain mn
cm
humidity
%
barometer
mb
20260506091824 7 144 0.0 0.0 0.00 0.48 0.48 98 1001.8
20260506091322 7 144 0.0 0.0 0.00 0.48 0.48 98 1001.8
20260506090820 7 144 0.0 0.0 0.00 0.48 0.48 97 1001.9
20260506090317 7 144 0.0 0.0 0.00 0.48 0.48 97 1002.0
20260506085813 7 144 0.0 0.0 0.00 0.48 0.48 97 1001.8
20260506085309 7 144 0.0 0.0 0.00 0.48 0.48 97 1001.8
20260506084806 7 139 0.0 1.6 0.00 0.48 0.48 97 1002.0
20260506084303 7 127 0.0 0.0 0.18 0.48 0.48 97 1001.6
20260506083800 7 158 0.0 0.0 0.18 0.48 0.48 97 1001.6
20260506083257 7 134 1.6 1.6 0.00 0.46 0.46 97 1001.5
20260506082754 7 162 0.0 1.6 0.00 0.46 0.46 97 1001.5
20260506082250 7 127 0.0 0.0 0.13 0.46 0.46 97 1001.6
20260506081748 7 153 0.0 0.0 0.13 0.46 0.46 98 1001.7
20260506081245 7 131 0.0 0.0 0.18 0.43 0.43 98 1001.5
20260506080743 7 125 0.0 1.6 0.18 0.43 0.43 98 1001.5
20260506080239 7 289 1.6 3.2 0.13 0.41 0.41 98 1001.8
20260506073223 7 159 1.6 1.6 0.18 0.33 0.33 99 1001.7
20260506072720 7 153 0.0 1.6 0.18 0.30 0.30 99 1001.9
20260506072218 7 140 1.6 1.6 0.30 0.30 0.30 99 1001.4
20260506071715 7 144 0.0 0.0 0.13 0.28 0.28 99 1001.4
20260506071213 7 135 0.0 0.0 0.00 0.25 0.25 99 1001.7
20260506070709 7 136 0.0 0.0 0.18 0.25 0.25 99 1001.6
20260506070207 7 133 1.6 1.6 0.18 0.25 0.25 99 1001.9
20260506062143 8 133 0.0 0.0 0.18 0.20 0.20 99 1001.3
20260506061639 8 133 0.0 0.0 0.00 0.18 0.18 99 1001.4
20260506061137 7 133 0.0 0.0 0.13 0.18 0.18 99 1001.8
20260506060635 7 132 0.0 0.0 0.13 0.18 0.18 99 1002.1
20260506060132 7 136 0.0 0.0 0.00 0.15 0.15 99 1002.0
20260506051104 7 135 0.0 0.0 0.18 0.10 0.10 99 1001.7
20260506050602 7 135 0.0 0.0 0.00 0.08 0.08 99 1001.7
20260506045052 7 135 0.0 0.0 0.18 0.05 0.05 99 1002.0
20260506044550 7 135 0.0 0.0 0.18 0.05 0.05 99 1001.8
20260506044047 8 135 0.0 0.0 0.00 0.03 0.03 99 1002.1
20260506043544 8 135 0.0 0.0 0.00 0.03 0.03 99 1001.8
20260506043042 7 135 0.0 0.0 0.00 0.03 0.03 99 1001.8
20260506042541 7 136 0.0 0.0 0.00 0.03 0.03 99 1001.9
20260506042039 7 136 0.0 0.0 0.00 0.03 0.03 99 1002.0
20260506041537 7 136 0.0 0.0 0.13 0.03 0.03 99 1002.1
20260506041033 7 136 0.0 0.0 0.13 0.03 0.03 99 1002.3
20260506040531 7 136 0.0 0.0 0.00 0.00 0.00 99 1002.5
20260506040027 8 136 0.0 0.0 0.00 0.00 0.00 99 1002.1
20260506035524 8 136 0.0 0.0 0.18 3.66 3.66 99 1002.5
20260506035021 8 129 0.0 0.0 0.18 3.66 3.66 99 1002.6
20260506034519 8 140 0.0 0.0 0.18 3.63 3.63 99 1002.7
20260506034015 8 137 0.0 0.0 0.30 3.63 3.63 99 1002.6
20260506033513 8 137 0.0 0.0 0.13 3.61 3.61 99 1002.7
20260506033010 8 136 0.0 0.0 0.18 3.58 3.58 99 1002.7
20260506032507 8 137 0.0 0.0 0.30 3.58 3.58 99 1002.9
20260506032003 9 137 0.0 0.0 0.13 3.56 3.56 99 1002.8
20260506031501 9 150 0.0 0.0 0.18 3.53 3.53 99 1002.8
20260506030958 9 135 0.0 0.0 0.30 3.53 3.53 99 1002.7
20260506030456 9 133 0.0 0.0 0.30 3.51 3.51 99 1002.7
20260506025953 9 128 0.0 0.0 0.30 3.48 3.48 99 1002.8
20260506025449 9 150 0.0 0.0 0.30 3.45 3.45 99 1003.1
20260506024946 9 144 0.0 0.0 0.30 3.43 3.43 99 1002.8
20260506024443 9 144 0.0 0.0 0.30 3.40 3.40 99 1002.7
20260506023938 9 148 0.0 0.0 0.30 3.38 3.38 99 1002.8
20260506023436 9 123 0.0 0.0 0.48 3.35 3.35 99 1002.9
20260506022932 9 150 0.0 0.0 0.66 3.33 3.33 99 1002.8
20260506022430 9 129 0.0 0.0 0.79 3.30 3.30 99 1002.7
20260506021928 9 139 0.0 0.0 0.61 3.25 3.25 99 1002.6
20260506021425 9 122 0.0 0.0 0.43 3.17 3.17 99 1002.5
20260506020922 9 130 0.0 0.0 0.48 3.15 3.15 99 1002.3
20260506020420 9 126 0.0 0.0 0.30 3.10 3.10 99 1002.3
20260506015917 9 132 0.0 0.0 0.30 3.07 3.07 99 1002.5
20260506015414 9 132 0.0 0.0 0.36 3.05 3.05 99 1002.2
20260506014911 9 131 0.0 0.0 0.18 3.02 3.02 99 1002.1
20260506014408 9 125 0.0 0.0 0.00 3.00 3.00 99 1002.2
20260506013904 9 129 0.0 0.0 0.00 3.00 3.00 99 1002.2
20260506013403 9 132 0.0 0.0 0.13 3.00 3.00 99 1001.8
20260506012858 9 129 0.0 0.0 0.30 3.00 3.00 99 1001.9
20260506012355 9 129 0.0 0.0 0.18 2.97 2.97 99 1001.9
20260506011852 9 136 0.0 0.0 0.13 2.95 2.95 99 1001.8
20260506011349 9 130 0.0 0.0 0.13 2.95 2.95 99 1001.8
20260506010846 9 134 0.0 0.0 0.18 2.92 2.92 99 1001.8
20260506010345 9 130 0.0 0.0 0.18 2.92 2.92 99 1001.8
20260506005841 9 133 0.0 0.0 0.00 2.90 2.90 99 1001.9
20260506005338 9 132 0.0 0.0 0.13 2.90 2.90 99 1001.8
20260506004833 9 127 0.0 0.0 0.13 2.90 2.90 99 1002.0
20260506004332 9 122 0.0 1.6 0.18 2.87 2.87 99 1001.9
20260506003827 9 127 0.0 0.0 0.30 2.87 2.87 99 1001.9
20260506003324 9 119 0.0 0.0 0.30 2.84 2.84 99 1002.0
20260506002820 9 122 0.0 0.0 0.18 2.82 2.82 99 1001.8
20260506002317 9 126 0.0 0.0 0.30 2.79 2.79 99 1001.9
20260506001812 9 127 0.0 0.0 0.30 2.79 2.79 99 1001.7
20260506001310 9 269 1.6 1.6 0.30 2.77 2.77 99 1001.8
20260506000807 10 128 0.0 1.6 0.30 2.74 2.74 99 1001.5
20260506000305 10 134 0.0 0.0 0.48 2.72 2.72 99 1001.6
20260505235801 10 119 0.0 0.0 0.48 2.69 2.69 99 1001.7
20260505235259 10 122 0.0 1.6 0.48 2.64 2.64 99 1001.4
20260505234755 10 17 0.0 1.6 0.30 2.62 2.62 99 1001.3
20260505234253 10 127 0.0 0.0 0.30 2.59 2.59 99 1001.3
20260505233750 10 132 0.0 0.0 0.13 2.57 2.57 99 1001.3
20260505233248 10 118 0.0 0.0 0.18 2.54 2.54 99 1001.4
20260505232745 10 128 0.0 0.0 0.18 2.54 2.54 99 1001.3
20260505232242 10 120 0.0 0.0 0.00 2.51 2.51 99 1001.5
20260505231738 10 95 1.6 3.2 0.00 2.51 2.51 99 1001.4
20260505231237 10 104 0.0 0.0 0.13 2.51 2.51 99 1001.5
20260505230735 10 121 0.0 0.0 0.30 2.51 2.51 99 1001.5
20260505230232 10 138 0.0 0.0 0.61 2.49 2.49 99 1001.8
20260505225728 10 70 1.6 1.6 0.89 2.46 2.46 98 1002.0
20260505225226 10 127 0.0 0.0 0.79 2.39 2.39 98 1002.2
20260505224720 10 120 0.0 0.0 0.79 2.31 2.31 98 1001.8
20260505224218 10 108 0.0 0.0 0.43 2.24 2.24 98 1002.0
20260505223716 10 89 0.0 1.6 0.48 2.21 2.21 98 1002.0
20260505223212 10 127 0.0 0.0 0.61 2.16 2.16 98 1002.1
20260505222708 10 97 1.6 1.6 0.48 2.11 2.11 98 1002.0
20260505222204 10 193 3.2 3.2 0.48 2.06 2.06 98 1002.0
20260505221702 10 103 1.6 1.6 0.48 2.03 2.03 98 1001.5
20260505221158 10 133 1.6 1.6 0.48 1.98 1.98 98 1001.5
20260505220655 10 146 0.0 0.0 1.02 1.96 1.96 98 1001.8
20260505220153 10 102 0.0 0.0 1.37 1.93 1.93 98 1001.9
20260505215650 10 154 0.0 1.6 0.79 1.78 1.78 98 1001.8
20260505215148 10 125 0.0 1.6 0.61 1.70 1.70 98 1001.5
20260505214646 11 152 0.0 0.0 0.48 1.65 1.65 98 1001.3
20260505214143 11 144 0.0 0.0 0.30 1.60 1.60 98 1001.4
20260505213640 10 128 0.0 0.0 0.30 1.57 1.57 98 1000.9
20260505213137 10 104 0.0 0.0 0.30 1.57 1.57 98 1001.1
20260505212633 10 225 1.6 3.2 0.13 1.52 1.52 98 1001.3
20260505212131 10 133 0.0 0.0 0.43 1.52 1.52 98 1001.3
20260505211627 11 131 0.0 0.0 0.66 1.50 1.50 98 1001.0
20260505211125 11 144 1.6 3.2 0.61 1.47 1.47 98 1000.9
20260505210621 11 92 1.6 1.6 0.30 1.42 1.42 98 1001.1
20260505210118 11 130 0.0 0.0 0.30 1.37 1.37 98 1001.0
20260505205616 11 149 0.0 0.0 0.79 1.37 1.37 98 1001.3
20260505205113 11 143 1.6 1.6 0.61 1.32 1.32 98 1001.2
20260505204610 11 92 1.6 1.6 0.30 1.24 1.24 98 1001.2
20260505204108 11 88 0.0 0.0 0.30 1.22 1.22 97 1001.3
20260505203604 11 105 1.6 1.6 0.43 1.19 1.19 97 1001.3
20260505203101 11 137 0.0 1.6 1.27 1.17 1.17 97 1001.1
20260505202557 11 96 3.2 4.8 1.37 1.12 1.12 97 1001.2
20260505202053 12 113 1.6 1.6 0.89 1.02 1.02 97 1001.2
20260505201550 12 48 3.2 3.2 0.48 0.89 0.89 97 1001.2
20260505201048 13 75 1.6 1.6 0.30 0.86 0.86 97 1000.9
20260505200545 13 153 0.0 0.0 0.13 0.81 0.81 97 1001.1
20260505200042 13 143 0.0 0.0 0.30 0.81 0.81 97 1000.9
20260505195538 13 124 0.0 0.0 0.36 0.79 0.79 97 1001.1
20260505195036 13 162 1.6 1.6 0.18 0.76 0.76 96 1001.1
20260505194533 13 137 0.0 0.0 0.18 0.76 0.76 96 1001.1
20260505194028 13 177 0.0 0.0 0.61 0.74 0.74 96 1001.3
20260505193525 13 149 0.0 0.0 1.32 0.74 0.74 96 1001.2
20260505193023 13 145 0.0 0.0 1.27 0.66 0.66 95 1001.0
20260505192521 13 150 1.6 1.6 1.07 0.53 0.53 95 1001.2
20260505192019 13 151 0.0 0.0 1.07 0.43 0.43 94 1001.3
20260505191516 13 159 0.0 0.0 0.89 0.36 0.36 93 1001.0
20260505191014 13 128 0.0 0.0 0.79 0.25 0.25 93 1001.1
20260505190508 13 142 0.0 0.0 0.61 0.20 0.20 92 1001.2
20260505190004 13 151 0.0 0.0 0.30 0.13 0.13 91 1001.2
20260505185501 14 144 0.0 0.0 0.30 0.10 0.10 91 1001.1
20260505184958 14 170 0.0 0.0 0.30 0.08 0.08 90 1001.0
20260505184455 14 125 0.0 0.0 0.30 0.05 0.05 88 1001.2
20260505183952 14 136 0.0 0.0 0.13 0.03 0.03 87 1001.3
20260505183449 15 185 0.0 0.0 0.00 0.00 0.00 84 1001.4
20260505182945 15 145 0.0 0.0 0.00 0.00 0.00 82 1001.5
20260505182443 16 182 1.6 1.6 0.00 0.00 0.00 81 1001.1
20260505181938 16 202 1.6 1.6 0.00 0.00 0.00 79 1001.0
20260505181436 16 136 0.0 0.0 0.00 0.00 0.00 78 1000.9
20260505180933 16 122 1.6 3.2 0.00 0.00 0.00 77 1000.9
20260505180429 16 156 1.6 3.2 0.00 0.00 0.00 75 1001.1
20260505175926 16 170 0.0 1.6 0.00 0.00 0.00 74 1001.0
20260505175422 16 161 0.0 1.6 0.00 0.00 0.00 74 1000.8
20260505174918 16 265 1.6 3.2 0.00 0.00 0.00 74 1000.9
20260505174417 17 157 0.0 1.6 0.00 0.00 0.00 74 1000.8
20260505173912 17 173 3.2 4.8 0.00 0.00 0.00 73 1001.0
20260505173409 17 167 3.2 4.8 0.00 0.00 0.00 72 1000.7
20260505172906 17 174 1.6 1.6 0.00 0.00 0.00 72 1000.6
20260505172404 17 161 0.0 1.6 0.00 0.00 0.00 72 1000.8
20260505171903 17 159 3.2 3.2 0.00 0.00 0.00 72 1000.6
20260505171400 17 175 3.2 3.2 0.00 0.00 0.00 73 1000.7
20260505170857 17 138 1.6 1.6 0.00 0.00 0.00 73 1000.6
20260505170354 17 151 3.2 4.8 0.00 0.00 0.00 73 1000.8
20260505165848 17 162 3.2 4.8 0.00 0.00 0.00 73 1000.8
20260505165345 17 128 1.6 1.6 0.00 0.00 0.00 73 1000.8
20260505164841 17 164 1.6 3.2 0.00 0.00 0.00 73 1000.7
20260505164337 17 182 3.2 4.8 0.00 0.00 0.00 74 1000.7
20260505163835 17 198 4.8 6.4 0.00 0.00 0.00 74 1000.7
20260505163334 17 148 3.2 3.2 0.00 0.00 0.00 74 1000.8
20260505162832 16 34 1.6 3.2 0.00 0.00 0.00 75 1000.8
20260505162328 16 115 1.6 1.6 0.00 0.00 0.00 75 1000.6
20260505161825 16 195 1.6 3.2 0.00 0.00 0.00 75 1000.7
20260505161322 16 156 1.6 1.6 0.00 0.00 0.00 75 1000.4
20260505160819 16 169 3.2 3.2 0.00 0.00 0.00 75 1000.7
20260505160317 16 197 1.6 3.2 0.00 0.00 0.00 75 1000.5
20260505153256 19 220 4.8 6.4 0.00 0.00 0.00 64 1000.1
20260505152753 20 159 3.2 9.7 0.00 0.00 0.00 64 999.8
20260505152249 19 118 4.8 4.8 0.00 0.00 0.00 64 999.6
20260505151743 19 154 6.4 6.4 0.00 0.00 0.00 64 999.6
20260505151241 20 165 4.8 6.4 0.00 0.00 0.00 63 999.5
20260505150739 19 155 1.6 1.6 0.00 0.00 0.00 63 999.2
20260505150236 19 164 1.6 1.6 0.00 0.00 0.00 63 998.9
20260505140206 18 170 9.7 16.1 0.00 0.00 0.00 66 999.1
20260505130129 17 180 4.8 9.7 0.00 0.00 0.00 70 998.6
20260505124619 17 161 3.2 4.8 0.00 0.00 0.00 70 998.9
20260505124115 16 144 4.8 6.4 0.00 0.00 0.00 70 998.8
20260505123611 16 223 4.8 6.4 0.00 0.00 0.00 70 998.8
20260505123108 16 172 3.2 4.8 0.00 0.00 0.00 69 998.6
20260505122605 16 164 3.2 4.8 0.00 0.00 0.00 69 998.7
20260505122102 16 242 3.2 3.2 0.00 0.00 0.00 69 998.9
20260505121558 16 158 9.7 11.3 0.00 0.00 0.00 69 998.7
20260505121055 16 161 3.2 3.2 0.00 0.00 0.00 69 998.5
20260505120551 16 234 3.2 3.2 0.00 0.00 0.00 69 998.4
20260505120048 16 260 3.2 3.2 0.00 0.00 0.00 69 998.2
20260505115542 16 257 1.6 3.2 0.00 0.00 0.00 69 998.0
20260505115040 16 250 6.4 11.3 0.00 0.00 0.00 69 997.8
20260505114536 16 164 3.2 4.8 0.00 0.00 0.00 69 997.4
20260505114032 16 170 1.6 3.2 0.00 0.00 0.00 69 997.3
20260505113524 16 168 3.2 4.8 0.00 0.00 0.00 69 997.0
20260505113021 16 294 1.6 3.2 0.00 0.00 0.00 68 997.0
20260505112517 17 195 3.2 4.8 0.00 0.00 0.00 68 997.1
20260505112015 17 166 4.8 6.4 0.00 0.00 0.00 67 997.0
20260505111514 17 266 4.8 9.7 0.00 0.00 0.00 67 997.1
20260505111010 17 168 4.8 4.8 0.00 0.00 0.00 67 997.2
20260505110508 17 186 4.8 6.4 0.00 0.00 0.00 66 997.1
20260505101932 17 176 3.2 4.8 0.00 0.00 0.00 68 997.0
20260505101426 17 172 8.0 11.3 0.00 0.00 0.00 67 997.0
20260505100922 18 176 3.2 4.8 0.00 0.00 0.00 66 996.8
20260505100419 18 216 4.8 6.4 0.00 0.00 0.00 64 997.1
20260505095915 18 162 4.8 4.8 0.00 0.00 0.00 63 997.0
20260505095412 18 167 4.8 4.8 0.00 0.00 0.00 63 996.9
20260505094908 18 157 6.4 6.4 0.00 0.00 0.00 63 996.6
20260505094406 18 178 4.8 4.8 0.00 0.00 0.00 63 996.4
20260505093901 18 133 3.2 4.8 0.00 0.00 0.00 64 996.4
20260505093359 18 139 3.2 3.2 0.00 0.00 0.00 63 996.1
20260505092856 18 139 6.4 6.4 0.00 0.00 0.00 63 996.4
20260505092354 18 260 4.8 6.4 0.00 0.00 0.00 63 996.1